Showing default

VINDLER 2.1, 68488

Orbit data source: Space-Track

VINDLER 2.1, 68488 is a payload satellite owned by NearSpaceLaunch (US) in SSO that was launched on Mon, 30 Mar 2026 UTC via an FALCON 9 launch vehicle from the Air Force Western Test Range (AFWTR). Payload-class satellites include a variety of spacecraft equipped with specific instruments for various scientific and technological missions. These include communications satellites like Starlink; space stations such as the ISS; scientific satellites like the Hubble; Earth observation satellites from companies like Planet Labs, Umbra, and HawkEye 360; GPS; miniature CubeSats for education and research; and military/defense satellites.

Loading next visibility...
Identifier
68488, 2026-067CA
Orbit
SSO
Country
Flag of USUS
Related business
Manufacturer
NearSpaceLaunch
Mission
Operational spacecraft
Bus & Motor
THINSAT 0.5U, Unknown motor
Mass
0.5 kg wet, 0.5 kg dry
Launch date (UTC)
2026-03-30 (3 months ago)
Launch vehicle
FALCON 9
Launch site
Air Force Western Test Range (AFWTR)
Object type
Payload
Rocket body
Debris
Shape & HBR
Unknown shape, 1.3 m
Radar Cross Section
Large (>1 m²)

Expand to show TLE details & history
Last TLE update: 2 days ago

TLE from 2 days ago
0 VINDLER 2.1
1 68488U 26067CA  26171.39607934  .00001260  00000-0  12987-3 0  9992
2 68488  97.7575 129.5911 0002547  63.4099 296.7381 14.91989061 12202
Epoch: 2026-06-20T09:30Z
TLE epoch observation values (Epoch: 2026-06-20T09:30:21.254Z)
Latitude
-0.00002°
Longitude
78.39124°
Altitude
593.978 km
Speed
7.563 km/s
True Right ascension
08h 38m 21s
True Declination
0° 00' 00"
Sunlit
Object was in daylight at epoch
Visualization orbit readout
Latitude
Unknown
Longitude
Unknown
Altitude
Unknown
Speed
Unknown
Apparent Right ascension
Unknown
Apparent Declination
Unknown
Sunlit
N/A
Visualization observer readout
Local Sidereal Time
20:35:01
Azimuth
Unknown
Elevation
Unknown
Doppler factor
Unknown
Orbital elements
Apogee altitude
590.527 km
Perigee altitude
586.978 km
Semi-major axis
6,966.89 km
Eccentricity
0.00025
Inclination
97.7575°
RAAN
129.5911°
Arg. of periapsis
63.4099°
True anomaly
296.71203°
Mean anomaly
296.7381°
Eccentric anomaly
296.72507°
Mean motion
3.73237 °/min
Orbital period
96.45 mins
BSTAR
0.00012987
Loading maneuver chart data...
Computing Atmospheric mass density...
Loading historical data...
Loading historical data...
Loading historical data...
Loading historical data...
Loading historical data...
Loading historical data...
Loading historical data...

Documentation

Showing up to 5 results
|